| time (UTC) | temp F | wind direction | speed knots | gust knots | rain 1hr in | rain 24hr in | rain mn in | humidity % | barometer mb |
| 20260506092137 | 59 | 2 | 0.0 | 0.0 | 0.00 | 0.00 | 0.00 | 71 | 1004.9 |
| 20260506091137 | 60 | 63 | 0.0 | 0.9 | 0.00 | 0.00 | 0.00 | 71 | 1004.5 |
| 20260506090637 | 60 | 65 | 0.0 | 0.9 | 0.00 | 0.00 | 0.00 | 70 | 1004.6 |
| 20260506090137 | 60 | 18 | 0.0 | 0.9 | 0.00 | 0.00 | 0.00 | 70 | 1004.3 |
| 20260506085637 | 60 | 41 | 0.0 | 0.9 | 0.00 | 0.00 | 0.00 | 70 | 1004.4 |
| 20260506084637 | 61 | 54 | 0.0 | 0.0 | 0.00 | 0.00 | 0.00 | 69 | 1004.3 |
| 20260506084137 | 61 | 60 | 0.0 | 0.0 | 0.00 | 0.00 | 0.00 | 68 | 1004.2 |
| 20260506083637 | 61 | 61 | 0.0 | 0.9 | 0.00 | 0.00 | 0.00 | 68 | 1004.4 |
| 20260506083137 | 61 | 67 | 0.0 | 0.9 | 0.00 | 0.00 | 0.00 | 67 | 1004.3 |
| 20260506082637 | 62 | 54 | 0.0 | 0.9 | 0.00 | 0.00 | 0.00 | 66 | 1004.4 |
| 20260506082137 | 62 | 70 | 0.0 | 0.9 | 0.00 | 0.00 | 0.00 | 65 | 1004.4 |
| 20260506081636 | 63 | 78 | 0.0 | 0.9 | 0.00 | 0.00 | 0.00 | 65 | 1004.3 |
| 20260506081137 | 63 | 76 | 0.0 | 0.9 | 0.00 | 0.00 | 0.00 | 64 | 1004.3 |
| 20260506080637 | 63 | 80 | 0.0 | 1.7 | 0.00 | 0.00 | 0.00 | 63 | 1004.3 |
| 20260506080137 | 64 | 82 | 0.0 | 1.7 | 0.00 | 0.00 | 0.00 | 62 | 1004.3 |
| 20260506073137 | 67 | 79 | 0.0 | 1.7 | 0.00 | 0.00 | 0.00 | 64 | 1003.6 |
| 20260506072637 | 67 | 116 | 0.0 | 0.9 | 0.00 | 0.00 | 0.00 | 63 | 1003.6 |
| 20260506072137 | 67 | 67 | 0.0 | 0.0 | 0.00 | 0.00 | 0.00 | 62 | 1003.5 |
| 20260506071637 | 67 | 88 | 0.0 | 0.0 | 0.00 | 0.00 | 0.00 | 61 | 1003.5 |
| 20260506071136 | 67 | 75 | 0.0 | 0.0 | 0.00 | 0.00 | 0.00 | 60 | 1003.3 |
| 20260506070637 | 67 | 60 | 0.0 | 0.0 | 0.00 | 0.00 | 0.00 | 59 | 1003.3 |
| 20260506062137 | 67 | 125 | 0.0 | 0.0 | 0.00 | 0.00 | 0.00 | 55 | 1002.7 |
| 20260506061636 | 68 | 125 | 0.0 | 0.0 | 0.00 | 0.00 | 0.00 | 55 | 1002.6 |
| 20260506061136 | 68 | 125 | 0.0 | 0.0 | 0.00 | 0.00 | 0.00 | 54 | 1002.5 |
| 20260506060637 | 68 | 125 | 0.0 | 0.0 | 0.00 | 0.00 | 0.00 | 54 | 1002.4 |
| 20260506060137 | 68 | 126 | 0.0 | 0.0 | 0.00 | 0.00 | 0.00 | 54 | 1002.3 |
| 20260506051137 | 67 | 265 | 0.0 | 0.0 | 0.00 | 0.00 | 0.00 | 62 | 1002.3 |
| 20260506050638 | 67 | 265 | 0.0 | 0.0 | 0.00 | 0.00 | 0.00 | 60 | 1002.3 |
| 20260506050136 | 67 | 265 | 0.0 | 0.0 | 0.00 | 0.00 | 0.00 | 60 | 1002.3 |
| 20260506044636 | 68 | 265 | 0.0 | 0.0 | 0.00 | 0.00 | 0.00 | 55 | 1002.5 |
| 20260506044138 | 68 | 265 | 0.0 | 0.0 | 0.00 | 0.00 | 0.00 | 55 | 1002.4 |
| 20260506043137 | 69 | 265 | 0.0 | 0.0 | 0.00 | 0.00 | 0.00 | 56 | 1002.4 |
| 20260506042137 | 69 | 265 | 0.0 | 0.0 | 0.00 | 0.00 | 0.00 | 56 | 1002.2 |
| 20260506041636 | 69 | 265 | 0.0 | 0.0 | 0.00 | 0.00 | 0.00 | 56 | 1002.2 |
| 20260506041137 | 69 | 265 | 0.0 | 0.0 | 0.00 | 0.00 | 0.00 | 56 | 1002.1 |
| 20260506040137 | 69 | 265 | 0.0 | 0.0 | 0.00 | 0.00 | 0.00 | 54 | 1002.1 |
| 20260506035636 | 69 | 265 | 0.0 | 0.0 | 0.00 | 0.00 | 0.00 | 54 | 1002.1 |
| 20260506035137 | 69 | 265 | 0.0 | 0.0 | 0.00 | 0.00 | 0.00 | 54 | 1002.1 |
| 20260506034637 | 70 | 265 | 0.0 | 0.0 | 0.00 | 0.00 | 0.00 | 53 | 1002.0 |
| 20260506034137 | 70 | 265 | 0.0 | 0.0 | 0.00 | 0.00 | 0.00 | 52 | 1002.1 |
| 20260506033637 | 70 | 265 | 0.0 | 0.0 | 0.00 | 0.00 | 0.00 | 50 | 1002.2 |
| 20260506032636 | 71 | 265 | 0.0 | 0.0 | 0.00 | 0.00 | 0.00 | 47 | 1002.3 |
| 20260506032137 | 71 | 265 | 0.0 | 0.0 | 0.00 | 0.00 | 0.00 | 46 | 1002.2 |
| 20260506031636 | 72 | 265 | 0.0 | 0.0 | 0.00 | 0.00 | 0.00 | 44 | 1002.2 |
| 20260506031136 | 72 | 265 | 0.0 | 0.0 | 0.00 | 0.00 | 0.00 | 43 | 1002.1 |
| 20260506030637 | 72 | 265 | 0.0 | 0.0 | 0.00 | 0.00 | 0.00 | 42 | 1002.1 |
| 20260506030136 | 73 | 265 | 0.0 | 0.0 | 0.00 | 0.00 | 0.00 | 42 | 1002.1 |
| 20260506025636 | 73 | 265 | 0.0 | 0.0 | 0.00 | 0.00 | 0.00 | 41 | 1002.1 |
| 20260506025137 | 74 | 265 | 0.0 | 0.0 | 0.00 | 0.00 | 0.00 | 41 | 1002.0 |
| 20260506024636 | 74 | 265 | 0.0 | 0.0 | 0.00 | 0.00 | 0.00 | 39 | 1002.1 |
| 20260506024137 | 74 | 265 | 0.0 | 0.0 | 0.00 | 0.00 | 0.00 | 37 | 1002.0 |
| 20260506023636 | 74 | 265 | 0.0 | 0.0 | 0.00 | 0.00 | 0.00 | 37 | 1001.9 |
| 20260506023137 | 74 | 265 | 0.0 | 0.0 | 0.00 | 0.00 | 0.00 | 36 | 1001.9 |
| 20260506022636 | 75 | 265 | 0.0 | 0.0 | 0.00 | 0.00 | 0.00 | 36 | 1001.8 |
| 20260506022136 | 76 | 265 | 0.0 | 0.0 | 0.00 | 0.00 | 0.00 | 35 | 1001.7 |
| 20260506021637 | 77 | 265 | 0.0 | 0.0 | 0.00 | 0.00 | 0.00 | 34 | 1001.6 |
| 20260506021136 | 77 | 265 | 0.0 | 0.0 | 0.00 | 0.00 | 0.00 | 31 | 1001.5 |
| 20260506020636 | 78 | 265 | 0.0 | 0.0 | 0.00 | 0.00 | 0.00 | 31 | 1001.5 |
| 20260506015636 | 79 | 265 | 0.0 | 0.0 | 0.00 | 0.00 | 0.00 | 30 | 1001.3 |
| 20260506015136 | 79 | 265 | 0.0 | 0.0 | 0.00 | 0.00 | 0.00 | 29 | 1001.3 |
| 20260506014636 | 79 | 269 | 0.0 | 0.0 | 0.00 | 0.00 | 0.00 | 28 | 1001.3 |
| 20260506014136 | 80 | 274 | 0.0 | 0.0 | 0.00 | 0.00 | 0.00 | 28 | 1001.2 |
| 20260506013636 | 80 | 287 | 0.0 | 0.0 | 0.00 | 0.00 | 0.00 | 28 | 1001.2 |
| 20260506013137 | 81 | 283 | 0.0 | 0.0 | 0.00 | 0.00 | 0.00 | 27 | 1001.2 |
| 20260506012636 | 81 | 286 | 0.0 | 0.9 | 0.00 | 0.00 | 0.00 | 26 | 1001.0 |
| 20260506012136 | 82 | 279 | 0.0 | 0.9 | 0.00 | 0.00 | 0.00 | 25 | 1001.0 |
| 20260506011636 | 82 | 275 | 0.0 | 1.7 | 0.00 | 0.00 | 0.00 | 25 | 1000.9 |
| 20260506011136 | 82 | 270 | 0.0 | 1.7 | 0.00 | 0.00 | 0.00 | 24 | 1000.9 |
| 20260506010636 | 83 | 265 | 0.0 | 1.7 | 0.00 | 0.00 | 0.00 | 24 | 1000.9 |
| 20260506005636 | 83 | 288 | 0.0 | 0.9 | 0.00 | 0.00 | 0.00 | 23 | 1000.9 |
| 20260506005136 | 83 | 276 | 0.0 | 0.9 | 0.00 | 0.00 | 0.00 | 22 | 1000.9 |
| 20260506004636 | 83 | 285 | 0.0 | 0.9 | 0.00 | 0.00 | 0.00 | 21 | 1000.9 |
| 20260506004136 | 84 | 263 | 0.0 | 0.9 | 0.00 | 0.00 | 0.00 | 21 | 1000.9 |
| 20260506003636 | 84 | 277 | 0.0 | 1.7 | 0.00 | 0.00 | 0.00 | 20 | 1000.9 |
| 20260506002636 | 84 | 276 | 0.0 | 1.7 | 0.00 | 0.00 | 0.00 | 20 | 1000.9 |
| 20260506001636 | 85 | 275 | 0.9 | 1.7 | 0.00 | 0.00 | 0.00 | 20 | 1000.9 |
| 20260506001136 | 85 | 276 | 0.0 | 2.6 | 0.00 | 0.00 | 0.00 | 19 | 1000.8 |
| 20260506000636 | 85 | 266 | 0.9 | 2.6 | 0.00 | 0.00 | 0.00 | 19 | 1000.7 |
| 20260506000136 | 85 | 270 | 0.9 | 2.6 | 0.00 | 0.00 | 0.00 | 19 | 1000.7 |
| 20260505235136 | 86 | 278 | 0.9 | 1.7 | 0.00 | 0.00 | 0.00 | 19 | 1000.5 |
| 20260505234636 | 86 | 284 | 0.0 | 1.7 | 0.00 | 0.00 | 0.00 | 19 | 1000.2 |
| 20260505234136 | 86 | 282 | 0.0 | 0.9 | 0.00 | 0.00 | 0.00 | 19 | 1000.1 |
| 20260505233636 | 86 | 275 | 0.0 | 0.9 | 0.00 | 0.00 | 0.00 | 19 | 1000.2 |
| 20260505233136 | 87 | 282 | 0.0 | 0.9 | 0.00 | 0.00 | 0.00 | 18 | 1000.3 |
| 20260505232136 | 87 | 280 | 0.0 | 0.9 | 0.00 | 0.00 | 0.00 | 18 | 999.8 |
| 20260505231136 | 87 | 266 | 0.0 | 0.9 | 0.00 | 0.00 | 0.00 | 19 | 999.8 |
| 20260505230636 | 87 | 274 | 0.0 | 2.6 | 0.00 | 0.00 | 0.00 | 19 | 1000.0 |
| 20260505230136 | 88 | 272 | 0.0 | 2.6 | 0.00 | 0.00 | 0.00 | 19 | 1000.0 |
| 20260505225636 | 88 | 261 | 0.0 | 1.7 | 0.00 | 0.00 | 0.00 | 19 | 1000.1 |
| 20260505225136 | 88 | 280 | 0.0 | 1.7 | 0.00 | 0.00 | 0.00 | 19 | 999.9 |
| 20260505224636 | 88 | 266 | 0.0 | 0.9 | 0.00 | 0.00 | 0.00 | 19 | 999.9 |
| 20260505223636 | 88 | 276 | 0.0 | 1.7 | 0.00 | 0.00 | 0.00 | 20 | 999.8 |
| 20260505223136 | 88 | 273 | 0.0 | 1.7 | 0.00 | 0.00 | 0.00 | 19 | 999.9 |
| 20260505222136 | 88 | 280 | 0.0 | 1.7 | 0.00 | 0.00 | 0.00 | 20 | 999.8 |
| 20260505221636 | 88 | 268 | 0.0 | 1.7 | 0.00 | 0.00 | 0.00 | 19 | 999.8 |
| 20260505221136 | 88 | 277 | 0.0 | 1.7 | 0.00 | 0.00 | 0.00 | 20 | 999.8 |
| 20260505220636 | 88 | 282 | 0.0 | 1.7 | 0.00 | 0.00 | 0.00 | 20 | 1000.0 |
| 20260505220136 | 89 | 284 | 0.0 | 1.7 | 0.00 | 0.00 | 0.00 | 20 | 1000.0 |
| 20260505215636 | 89 | 305 | 0.0 | 1.7 | 0.00 | 0.00 | 0.00 | 20 | 1000.0 |
| 20260505215136 | 89 | 281 | 0.9 | 1.7 | 0.00 | 0.00 | 0.00 | 20 | 1000.0 |
| 20260505214635 | 89 | 283 | 0.0 | 0.9 | 0.00 | 0.00 | 0.00 | 20 | 1000.3 |
| 20260505214136 | 89 | 282 | 0.0 | 1.7 | 0.00 | 0.00 | 0.00 | 19 | 1000.3 |
| 20260505213136 | 89 | 298 | 0.9 | 1.7 | 0.00 | 0.00 | 0.00 | 20 | 1000.0 |
| 20260505212635 | 90 | 287 | 0.0 | 0.9 | 0.00 | 0.00 | 0.00 | 19 | 1000.1 |
| 20260505212136 | 90 | 270 | 0.0 | 0.9 | 0.00 | 0.00 | 0.00 | 20 | 1000.2 |
| 20260505211635 | 89 | 280 | 0.0 | 0.9 | 0.00 | 0.00 | 0.00 | 20 | 1000.2 |
| 20260505211136 | 89 | 250 | 0.9 | 1.7 | 0.00 | 0.00 | 0.00 | 19 | 1000.1 |
| 20260505210635 | 89 | 269 | 0.9 | 2.6 | 0.00 | 0.00 | 0.00 | 20 | 1000.2 |
| 20260505210136 | 90 | 276 | 0.0 | 2.6 | 0.00 | 0.00 | 0.00 | 20 | 1000.2 |
| 20260505205635 | 89 | 287 | 0.0 | 2.6 | 0.00 | 0.00 | 0.00 | 20 | 1000.3 |
| 20260505205136 | 89 | 283 | 0.0 | 1.7 | 0.00 | 0.00 | 0.00 | 21 | 1000.3 |
| 20260505204635 | 90 | 286 | 0.0 | 1.7 | 0.00 | 0.00 | 0.00 | 20 | 1000.3 |
| 20260505204136 | 89 | 277 | 0.0 | 1.7 | 0.00 | 0.00 | 0.00 | 19 | 1000.5 |
| 20260505202635 | 90 | 283 | 0.0 | 1.7 | 0.00 | 0.00 | 0.00 | 19 | 1000.6 |
| 20260505202136 | 90 | 283 | 0.0 | 0.9 | 0.00 | 0.00 | 0.00 | 19 | 1000.6 |
| 20260505201635 | 90 | 282 | 0.0 | 0.9 | 0.00 | 0.00 | 0.00 | 19 | 1000.7 |
| 20260505201136 | 90 | 284 | 0.0 | 1.7 | 0.00 | 0.00 | 0.00 | 19 | 1000.6 |
| 20260505200635 | 90 | 272 | 0.0 | 1.7 | 0.00 | 0.00 | 0.00 | 19 | 1000.7 |
| 20260505200135 | 90 | 280 | 0.0 | 2.6 | 0.00 | 0.00 | 0.00 | 19 | 1000.7 |
| 20260505195635 | 90 | 272 | 0.0 | 2.6 | 0.00 | 0.00 | 0.00 | 20 | 1000.8 |
| 20260505195136 | 90 | 279 | 0.0 | 10.4 | 0.00 | 0.00 | 0.00 | 20 | 1000.6 |
| 20260505194635 | 90 | 263 | 6.1 | 10.4 | 0.00 | 0.00 | 0.00 | 24 | 1000.5 |
| 20260505194136 | 89 | 243 | 7.0 | 12.2 | 0.00 | 0.00 | 0.00 | 26 | 1000.5 |
| 20260505193635 | 89 | 287 | 3.5 | 13.0 | 0.00 | 0.00 | 0.00 | 25 | 1000.6 |
| 20260505193136 | 90 | 240 | 9.6 | 13.0 | 0.00 | 0.00 | 0.00 | 25 | 1000.7 |
| 20260505191635 | 90 | 265 | 4.3 | 10.4 | 0.00 | 0.00 | 0.00 | 25 | 1000.8 |
| 20260505191136 | 90 | 250 | 7.0 | 10.4 | 0.00 | 0.00 | 0.00 | 26 | 1000.9 |
| 20260505190635 | 89 | 261 | 0.0 | 10.4 | 0.00 | 0.00 | 0.00 | 26 | 1000.9 |
| 20260505190135 | 89 | 258 | 4.3 | 10.4 | 0.00 | 0.00 | 0.00 | 26 | 1000.9 |
| 20260505185635 | 89 | 250 | 2.6 | 10.4 | 0.00 | 0.00 | 0.00 | 25 | 1000.9 |
| 20260505185136 | 89 | 269 | 2.6 | 10.4 | 0.00 | 0.00 | 0.00 | 26 | 1000.8 |
| 20260505184635 | 89 | 275 | 5.2 | 10.4 | 0.00 | 0.00 | 0.00 | 25 | 1000.8 |
| 20260505184136 | 89 | 288 | 0.9 | 10.4 | 0.00 | 0.00 | 0.00 | 26 | 1000.9 |
| 20260505183635 | 88 | 257 | 5.2 | 10.4 | 0.00 | 0.00 | 0.00 | 27 | 1001.1 |
| 20260505183135 | 88 | 238 | 6.1 | 8.7 | 0.00 | 0.00 | 0.00 | 26 | 1001.2 |
| 20260505182635 | 88 | 296 | 5.2 | 10.4 | 0.00 | 0.00 | 0.00 | 26 | 1001.3 |
| 20260505182135 | 87 | 283 | 5.2 | 10.4 | 0.00 | 0.00 | 0.00 | 27 | 1001.3 |
| 20260505181635 | 87 | 258 | 4.3 | 8.7 | 0.00 | 0.00 | 0.00 | 29 | 1001.4 |
| 20260505181135 | 87 | 240 | 0.9 | 8.7 | 0.00 | 0.00 | 0.00 | 28 | 1001.4 |
| 20260505180635 | 87 | 281 | 0.0 | 7.8 | 0.00 | 0.00 | 0.00 | 31 | 1001.3 |
| 20260505180136 | 87 | 262 | 1.7 | 7.8 | 0.00 | 0.00 | 0.00 | 29 | 1001.3 |
| 20260505175635 | 86 | 245 | 0.0 | 2.6 | 0.00 | 0.00 | 0.00 | 30 | 1001.3 |
| 20260505175135 | 86 | 284 | 0.0 | 8.7 | 0.00 | 0.00 | 0.00 | 30 | 1001.5 |
| 20260505174635 | 86 | 257 | 4.3 | 8.7 | 0.00 | 0.00 | 0.00 | 30 | 1001.4 |
| 20260505174135 | 86 | 261 | 5.2 | 7.8 | 0.00 | 0.00 | 0.00 | 31 | 1001.5 |
| 20260505173635 | 85 | 280 | 0.0 | 8.7 | 0.00 | 0.00 | 0.00 | 33 | 1001.5 |
| 20260505173135 | 85 | 287 | 2.6 | 10.4 | 0.00 | 0.00 | 0.00 | 34 | 1001.5 |
| 20260505172635 | 85 | 266 | 2.6 | 10.4 | 0.00 | 0.00 | 0.00 | 36 | 1001.5 |
| 20260505172135 | 84 | 236 | 3.5 | 10.4 | 0.00 | 0.00 | 0.00 | 38 | 1001.5 |
| 20260505171635 | 84 | 242 | 3.5 | 10.4 | 0.00 | 0.00 | 0.00 | 39 | 1001.5 |
| 20260505171135 | 83 | 257 | 6.1 | 10.4 | 0.00 | 0.00 | 0.00 | 39 | 1001.6 |
| 20260505170635 | 83 | 256 | 0.0 | 10.4 | 0.00 | 0.00 | 0.00 | 40 | 1001.6 |
| 20260505170135 | 83 | 267 | 0.9 | 10.4 | 0.00 | 0.00 | 0.00 | 40 | 1001.8 |
| 20260505165635 | 83 | 274 | 2.6 | 8.7 | 0.00 | 0.00 | 0.00 | 41 | 1001.8 |
| 20260505165135 | 82 | 250 | 2.6 | 10.4 | 0.00 | 0.00 | 0.00 | 42 | 1001.8 |
| 20260505164635 | 82 | 248 | 5.2 | 10.4 | 0.00 | 0.00 | 0.00 | 41 | 1001.8 |
| 20260505164135 | 82 | 246 | 5.2 | 8.7 | 0.00 | 0.00 | 0.00 | 43 | 1001.8 |
| 20260505163635 | 81 | 241 | 5.2 | 8.7 | 0.00 | 0.00 | 0.00 | 46 | 1001.8 |
| 20260505163135 | 80 | 265 | 1.7 | 8.7 | 0.00 | 0.00 | 0.00 | 50 | 1001.8 |
| 20260505162635 | 80 | 257 | 2.6 | 10.4 | 0.00 | 0.00 | 0.00 | 50 | 1001.8 |
| 20260505162135 | 80 | 250 | 5.2 | 10.4 | 0.00 | 0.00 | 0.00 | 51 | 1001.8 |
| 20260505161635 | 79 | 250 | 3.5 | 10.4 | 0.00 | 0.00 | 0.00 | 53 | 1001.8 |
| 20260505161135 | 79 | 247 | 4.3 | 8.7 | 0.00 | 0.00 | 0.00 | 54 | 1002.0 |
| 20260505160635 | 78 | 268 | 0.0 | 6.1 | 0.00 | 0.00 | 0.00 | 56 | 1002.0 |
| 20260505160135 | 78 | 256 | 0.0 | 10.4 | 0.00 | 0.00 | 0.00 | 58 | 1002.0 |
| 20260505153135 | 75 | 238 | 0.0 | 8.7 | 0.00 | 0.00 | 0.00 | 69 | 1002.0 |
| 20260505152635 | 75 | 225 | 2.6 | 10.4 | 0.00 | 0.00 | 0.00 | 69 | 1001.8 |
| 20260505151635 | 74 | 240 | 2.6 | 7.8 | 0.00 | 0.00 | 0.00 | 71 | 1002.0 |
| 20260505151135 | 73 | 244 | 2.6 | 8.7 | 0.00 | 0.00 | 0.00 | 72 | 1002.0 |
| 20260505150635 | 73 | 238 | 4.3 | 8.7 | 0.00 | 0.00 | 0.00 | 73 | 1001.9 |
| 20260505150134 | 73 | 225 | 0.0 | 0.0 | 0.00 | 0.00 | 0.00 | 75 | 1001.9 |
| 20260505140635 | 69 | 199 | 0.0 | 0.9 | 0.00 | 0.00 | 0.00 | 82 | 1001.7 |
| 20260505140134 | 69 | 202 | 0.0 | 0.9 | 0.00 | 0.00 | 0.00 | 82 | 1001.6 |
| 20260505130134 | 67 | 205 | 0.0 | 0.0 | 0.00 | 0.00 | 0.00 | 85 | 1001.4 |
| 20260505124634 | 67 | 203 | 0.0 | 2.6 | 0.00 | 0.00 | 0.00 | 85 | 1001.2 |
| 20260505124135 | 66 | 207 | 0.0 | 2.6 | 0.00 | 0.00 | 0.00 | 85 | 1001.2 |
| 20260505123634 | 66 | 219 | 0.0 | 0.0 | 0.00 | 0.00 | 0.00 | 85 | 1001.2 |
| 20260505123134 | 66 | 219 | 0.0 | 0.0 | 0.00 | 0.00 | 0.00 | 85 | 1001.2 |
| 20260505122634 | 66 | 219 | 0.0 | 0.0 | 0.00 | 0.00 | 0.00 | 84 | 1001.1 |
| 20260505122135 | 66 | 219 | 0.0 | 0.0 | 0.00 | 0.00 | 0.00 | 84 | 1001.0 |
| 20260505121135 | 66 | 219 | 0.0 | 0.0 | 0.00 | 0.00 | 0.00 | 84 | 1000.8 |
| 20260505120634 | 67 | 219 | 0.0 | 0.0 | 0.00 | 0.00 | 0.00 | 84 | 1000.7 |
| 20260505115634 | 67 | 219 | 0.0 | 0.0 | 0.00 | 0.00 | 0.00 | 84 | 1000.9 |
| 20260505115134 | 67 | 218 | 0.0 | 0.0 | 0.00 | 0.00 | 0.00 | 83 | 1000.7 |
| 20260505114634 | 67 | 218 | 0.0 | 0.0 | 0.00 | 0.00 | 0.00 | 83 | 1000.7 |
| 20260505114135 | 67 | 218 | 0.0 | 0.0 | 0.00 | 0.00 | 0.00 | 83 | 1000.7 |
| 20260505113634 | 67 | 218 | 0.0 | 7.0 | 0.00 | 0.00 | 0.00 | 83 | 1000.6 |
| 20260505113134 | 67 | 218 | 0.0 | 7.0 | 0.00 | 0.00 | 0.00 | 83 | 1000.5 |
| 20260505112634 | 67 | 247 | 0.0 | 2.6 | 0.00 | 0.00 | 0.00 | 83 | 1000.5 |
| 20260505112134 | 67 | 196 | 0.0 | 2.6 | 0.00 | 0.00 | 0.00 | 82 | 1000.5 |
| 20260505111134 | 67 | 196 | 0.0 | 0.0 | 0.00 | 0.00 | 0.00 | 82 | 1000.5 |
| 20260505110634 | 67 | 196 | 0.0 | 0.0 | 0.00 | 0.00 | 0.00 | 82 | 1000.4 |
| 20260505110134 | 67 | 196 | 0.0 | 0.0 | 0.00 | 0.00 | 0.00 | 82 | 1000.3 |
| 20260505101634 | 67 | 235 | 0.0 | 0.9 | 0.00 | 0.00 | 0.00 | 81 | 1000.1 |
| 20260505101134 | 67 | 235 | 0.0 | 0.9 | 0.00 | 0.00 | 0.00 | 81 | 1000.1 |
| 20260505100634 | 67 | 245 | 0.0 | 0.0 | 0.00 | 0.00 | 0.00 | 81 | 1000.2 |
| 20260505100134 | 67 | 245 | 0.0 | 0.0 | 0.00 | 0.00 | 0.00 | 80 | 1000.2 |
| 20260505094634 | 67 | 312 | 0.0 | 0.0 | 0.00 | 0.00 | 0.00 | 82 | 1000.1 |
| 20260505094134 | 67 | 315 | 0.0 | 0.0 | 0.00 | 0.00 | 0.00 | 81 | 1000.0 |
| 20260505093634 | 67 | 349 | 0.0 | 0.0 | 0.00 | 0.00 | 0.00 | 80 | 1000.0 |
| 20260505093134 | 67 | 349 | 0.0 | 0.0 | 0.00 | 0.00 | 0.00 | 80 | 1000.0 |
| 20260505092634 | 67 | 349 | 0.0 | 0.0 | 0.00 | 0.00 | 0.00 | 80 | 1000.0 |